User: anonymous   Login
Location: Unspecified
(0.0000°N, 0.0000°E)
Time: 10:49:36
(UTC+00:00)
Language:

TET - Orbit

View from above orbital plane
View from above orbital plane
View from above satellite
View from above satellite

Ground track
Ground track

The orbit data is extracted from the following two-line orbital elements,

1 38710U 12039D   18200.56791410 +.00002112 +00000-0 +42540-4 0  9993
2 38710 097.5926 179.4555 0001693 141.2377 218.8994 15.47832983335663
Epoch (UTC): 19 July 2018 13:37:47
Eccentricity: 0.0001693
inclination: 97.5926°
perigee height: 422 km
apogee height: 424 km
right ascension of ascending node: 179.4555°
argument of perigee: 141.2377°
revolutions per day: 15.47832983
mean anomaly at epoch: 218.8994°
orbit number at epoch: 33566

The dashed part of the orbit path shows where the satellite is in the earth's shadow,  

DLR